FW5178 Weather Reports


time (UTC)temp
C
wind
direction
speed
KPH
gust
KPH
rain 1hr
cm
rain 24hr
cm
rain mn
cm
humidity
%
barometer
mb
20260503184529 24 307 3.2 11.3 0.00 0.00 0.00 55 1014.9
20260503183028 23 320 3.2 8.0 0.00 0.00 0.00 55 1015.1
20260503181542 23 317 1.6 4.8 0.00 0.00 0.00 54 1015.2
20260503174530 22 270 1.6 6.4 0.00 0.00 0.00 55 1015.5
20260503171535 21 22 0.0 0.0 0.00 0.00 0.00 55 1015.7
20260503110107 11 113 1.6 6.4 0.00 0.00 0.00 83 1016.0
20260503100109 12 90 0.0 4.8 0.00 0.00 0.00 82 1015.8
20260503071530 15 112 0.0 3.2 0.00 0.00 0.00 75 1015.7
20260503054532 16 22 1.6 8.0 0.00 0.00 0.00 72 1015.6
20260503053146 16 74 1.6 6.4 0.00 0.00 0.00 71 1015.6
20260503051602 16 96 1.6 6.4 0.00 0.00 0.00 70 1015.5
20260503050029 16 103 3.2 6.4 0.00 0.00 0.00 69 1015.4
20260503044530 17 135 0.0 4.8 0.00 0.00 0.00 67 1015.3
20260503043106 17 120 1.6 4.8 0.00 0.00 0.00 65 1015.2
20260503041530 17 40 4.8 8.0 0.00 0.00 0.00 63 1014.9
20260503040145 18 71 3.2 8.0 0.00 0.00 0.00 62 1014.7
20260503034531 18 112 0.0 1.6 0.00 0.00 0.00 62 1014.4
20260503033030 19 114 4.8 8.0 0.00 0.00 0.00 62 1014.1
20260503031530 20 76 1.6 6.4 0.00 0.00 0.00 61 1013.8
20260503030030 20 146 0.0 6.4 0.00 0.00 0.00 58 1013.5
20260503024529 20 157 0.0 0.0 0.00 0.00 0.00 56 1013.3
20260503023031 21 157 0.0 0.0 0.00 0.00 0.00 57 1013.3
20260503021527 21 155 0.0 4.8 0.00 0.00 0.00 57 1013.2
20260503020030 22 22 0.0 1.6 0.00 0.00 0.00 53 1013.1
20260503014530 22 22 0.0 1.6 0.00 0.00 0.00 52 1013.1
20260503013031 23 22 0.0 3.2 0.00 0.00 0.00 53 1013.2
20260503011531 23 22 1.6 4.8 0.00 0.00 0.00 56 1013.2
20260503004529 25 22 3.2 4.8 0.00 0.00 0.00 53 1013.1
20260503003113 25 10 4.8 8.0 0.00 0.00 0.00 52 1013.1
20260503001532 26 339 4.8 8.0 0.00 0.00 0.00 51 1013.1
20260503000034 26 313 1.6 6.4 0.00 0.00 0.00 51 1013.2
20260502233033 25 332 3.2 8.0 0.00 0.00 0.00 51 1013.6
20260502231530 26 359 1.6 6.4 0.00 0.00 0.00 51 1013.8
20260502224531 26 328 6.4 12.9 0.00 0.00 0.00 51 1014.0
20260502223030 26 320 4.8 16.1 0.00 0.00 0.00 53 1014.3
20260502221528 25 287 3.2 9.7 0.00 0.00 0.00 55 1014.5
20260502220030 23 251 1.6 6.4 0.00 0.00 0.00 59 1014.8
20260502213032 22 244 4.8 11.3 0.00 0.00 0.00 61 1015.1
20260502211530 21 225 0.0 4.8 0.00 0.00 0.00 61 1015.4
20260502210030 22 227 1.6 8.0 0.00 0.00 0.00 62 1015.6
20260502204608 21 310 0.0 8.0 0.00 0.00 0.00 64 1015.6
20260502203031 20 264 4.8 9.7 0.00 0.00 0.00 69 1015.8
20260502201530 17 344 3.2 9.7 0.00 0.00 0.00 72 1015.8
20260502200028 17 219 4.8 12.9 0.00 0.00 0.00 73 1016.3
20260502194533 17 11 6.4 16.1 0.00 0.00 0.00 73 1015.8
20260502191606 19 358 4.8 11.3 0.00 0.00 0.00 68 1016.7
20260502190029 20 351 6.4 11.3 0.00 0.00 0.00 66 1017.1